Location: Oroua River
(40.4333°S, 175.4333°E)
Time: 13:45:07
(UTC+00:00)

ADEOS II - Pass Details

Date: 03 February 2023
Orbit: 799 x 799 km, 98.6° (Epoch: 22 March)

Event Time Altitude Azimuth Distance (km) Brightness Sun altitude
Exits shadow 12:24:02 21° 115° (ESE) 1,741 4.0 -33.0°
Maximum altitude 12:24:08 21° 117° (ESE) 1,741 4.0 -33.0°
Drops below altitude 10° 12:28:02 10° 164° (SSE) 2,407 5.3 -33.1°
Sets 12:30:53 0° 179° (S) 3,345 6.4 -33.1°
